User: anonymous   Login
Location: Unspecified
(0.0000°N, 0.0000°E)
Time: 23:40:44
(UTC+00:00)
Language:

GSAT 7 - Orbit

View from above orbital plane
View from above orbital plane
View from above satellite
View from above satellite

Ground track
Ground track

The orbit data is extracted from the following two-line orbital elements,

1 39234U 13044B   16210.26286162  .00000000  00000-0  10000-3 0  9990
2 39234   0.0319 144.8615 0007405 141.0459 189.0739  1.00269566  9534
Epoch (UTC): 28 July 2016 06:18:31
Eccentricity: 0.0007405
inclination: 0.0319°
perigee height: 35755 km
apogee height: 35818 km
right ascension of ascending node: 144.8615°
argument of perigee: 141.0459°
revolutions per day: 1.00269566
mean anomaly at epoch: 189.0739°
orbit number at epoch: 953

The dashed part of the orbit path shows where the satellite is in the earth's shadow,  

DLR